• In Uzbekistan
  • List of Countries
  • For 7 days
  • Water Temperature
  • Satellite Maps
  • Weather Map
  • Weather Widgets
  • user-avatar
    Login

    Hourly Weather Artashat

    Today, 16 January, Tuesday

    Time Temperature Precipitation Wind Pressure Humidity
    00:00 -8°C° 0 mm 1 mps 600 mmHg 73%
    01:00 -8°C° 0 mm 1 mps 600 mmHg 74%
    02:00 -8°C° 0 mm 1 mps 600 mmHg 74%
    03:00 -8°C° 0 mm 1 mps 600 mmHg 73%
    04:00 -8°C° 0 mm 1 mps 600 mmHg 73%
    05:00 -9°C° 0 mm 1 mps 600 mmHg 73%
    06:00 -9°C° 0 mm 1 mps 600 mmHg 73%
    07:00 -8°C° 0 mm 1 mps 600 mmHg 72%
    08:00 -7°C° 0 mm 1 mps 600 mmHg 70%
    09:00 -6°C° 0 mm 1 mps 601 mmHg 68%
    10:00 -4°C° 0 mm 1 mps 600 mmHg 66%
    11:00 -4°C° 0 mm 1 mps 600 mmHg 65%
    12:00 -3°C° 0 mm 1 mps 600 mmHg 63%
    13:00 -3°C° 0 mm 1 mps 600 mmHg 64%
    14:00 -3°C° 0 mm 1 mps 600 mmHg 64%
    15:00 -2°C° 0 mm 1 mps 599 mmHg 65%
    16:00 -3°C° 0 mm 1 mps 599 mmHg 68%
    17:00 -4°C° 0 mm 1 mps 599 mmHg 70%
    18:00 -6°C° 0 mm 1 mps 599 mmHg 72%
    19:00 -7°C° 0 mm 1 mps 598 mmHg 72%
    20:00 -8°C° 0 mm 1 mps 598 mmHg 72%
    21:00 -8°C° 0 mm 1 mps 598 mmHg 72%
    22:00 -8°C° 0 mm 1 mps 598 mmHg 72%
    23:00 -9°C° 0 mm 1 mps 598 mmHg 71%

    Tomorrow, 17 January, Wednesday

    Time Temperature Precipitation Wind Pressure Humidity
    00:00 -9°C° 0 mm 1 mps 598 mmHg 71%
    01:00 -9°C° 0 mm 1 mps 597 mmHg 71%
    02:00 -9°C° 0 mm 1 mps 597 mmHg 71%
    03:00 -9°C° 0 mm 1 mps 597 mmHg 71%
    04:00 -10°C° 0 mm 1 mps 597 mmHg 71%
    05:00 -10°C° 0 mm 1 mps 597 mmHg 71%
    06:00 -10°C° 0 mm 1 mps 596 mmHg 71%
    07:00 -9°C° 0 mm 1 mps 597 mmHg 69%
    08:00 -8°C° 0 mm 1 mps 597 mmHg 67%
    09:00 -8°C° 0 mm 1 mps 597 mmHg 65%
    10:00 -7°C° 0 mm 1 mps 597 mmHg 63%
    11:00 -4°C° 0 mm 1 mps 597 mmHg 61%
    12:00 -5°C° 0 mm 2 mps 597 mmHg 58%
    13:00 -5°C° 0 mm 2 mps 597 mmHg 59%
    14:00 -5°C° 0 mm 2 mps 596 mmHg 59%
    15:00 -5°C° 0 mm 2 mps 596 mmHg 59%
    16:00 -6°C° 0 mm 2 mps 596 mmHg 61%
    17:00 -7°C° 0 mm 2 mps 596 mmHg 63%
    18:00 -8°C° 0 mm 2 mps 595 mmHg 65%
    19:00 -8°C° 0 mm 2 mps 595 mmHg 65%
    20:00 -8°C° 0 mm 2 mps 595 mmHg 65%
    21:00 -8°C° 0 mm 2 mps 595 mmHg 65%
    22:00 -8°C° 0 mm 2 mps 595 mmHg 66%
    23:00 -8°C° 0 mm 2 mps 595 mmHg 66%

    Day after tomorrow, 18 January, Thursday

    Time Temperature Precipitation Wind Pressure Humidity
    00:00 -8°C° 0 mm 2 mps 595 mmHg 67%
    01:00 -8°C° 0.1 mm 2 mps 595 mmHg 69%
    02:00 -8°C° 0.1 mm 2 mps 595 mmHg 71%
    03:00 -8°C° 0.1 mm 2 mps 595 mmHg 72%
    04:00 -8°C° 0.1 mm 2 mps 594 mmHg 73%
    05:00 -8°C° 0.1 mm 2 mps 594 mmHg 75%
    06:00 -8°C° 0.1 mm 2 mps 594 mmHg 76%
    07:00 -7°C° 0.1 mm 2 mps 594 mmHg 74%
    08:00 -7°C° 0.1 mm 2 mps 594 mmHg 73%
    09:00 -8°C° 0.1 mm 3 mps 594 mmHg 72%
    10:00 -6°C° 0 mm 3 mps 594 mmHg 69%
    11:00 -5°C° 0 mm 3 mps 594 mmHg 67%
    12:00 -4°C° 0 mm 4 mps 594 mmHg 65%
    13:00 -3°C° 0 mm 4 mps 594 mmHg 65%
    14:00 -3°C° 0 mm 4 mps 594 mmHg 64%
    15:00 -3°C° 0 mm 4 mps 593 mmHg 63%
    16:00 -4°C° 0 mm 3 mps 593 mmHg 65%
    17:00 -4°C° 0 mm 3 mps 593 mmHg 68%
    18:00 -5°C° 0 mm 3 mps 592 mmHg 70%
    19:00 -6°C° 0 mm 3 mps 592 mmHg 70%
    20:00 -6°C° 0 mm 3 mps 592 mmHg 70%
    21:00 -7°C° 0 mm 3 mps 591 mmHg 70%
    22:00 -6°C° 0 mm 2 mps 591 mmHg 69%
    23:00 -6°C° 0 mm 2 mps 591 mmHg 69%

    19 January, Friday

    Time Temperature Precipitation Wind Pressure Humidity
    00:00 -6°C° 0 mm 2 mps 591 mmHg 69%
    01:00 -6°C° 0 mm 2 mps 591 mmHg 69%
    02:00 -7°C° 0 mm 3 mps 591 mmHg 70%
    03:00 -7°C° 0 mm 3 mps 590 mmHg 71%
    04:00 -8°C° 0 mm 3 mps 590 mmHg 72%
    05:00 -7°C° 0 mm 2 mps 590 mmHg 74%
    06:00 -7°C° 0 mm 2 mps 590 mmHg 75%
    07:00 -6°C° 0 mm 2 mps 591 mmHg 74%
    08:00 -5°C° 0 mm 2 mps 591 mmHg 73%
    09:00 -5°C° 0 mm 2 mps 592 mmHg 72%
    10:00 -3°C° 0 mm 2 mps 593 mmHg 71%
    11:00 -2°C° 0 mm 3 mps 593 mmHg 70%
    12:00 -1°C° 0 mm 3 mps 594 mmHg 68%
    13:00 -1°C° 0 mm 2 mps 594 mmHg 68%
    14:00 -1°C° 0 mm 2 mps 594 mmHg 68%
    15:00 +1°C° 0 mm 2 mps 594 mmHg 67%
    16:00 -1°C° 0 mm 2 mps 595 mmHg 70%
    17:00 -2°C° 0 mm 2 mps 595 mmHg 73%
    18:00 -3°C° 0 mm 2 mps 596 mmHg 75%
    19:00 -4°C° 0 mm 2 mps 596 mmHg 75%
    20:00 -4°C° 0 mm 2 mps 597 mmHg 75%
    21:00 -5°C° 0 mm 2 mps 597 mmHg 75%
    22:00 -5°C° 0 mm 2 mps 597 mmHg 75%
    23:00 -5°C° 0 mm 2 mps 597 mmHg 75%

    20 January, Saturday

    Time Temperature Precipitation Wind Pressure Humidity
    00:00 -6°C° 0 mm 2 mps 597 mmHg 74%
    01:00 -6°C° 0 mm 2 mps 598 mmHg 74%
    02:00 -6°C° 0 mm 2 mps 598 mmHg 73%
    03:00 -7°C° 0 mm 2 mps 598 mmHg 72%
    04:00 -7°C° 0 mm 2 mps 598 mmHg 71%
    05:00 -6°C° 0 mm 1 mps 599 mmHg 69%
    06:00 -6°C° 0 mm 1 mps 599 mmHg 68%
    07:00 -4°C° 0 mm 1 mps 600 mmHg 65%
    08:00 -3°C° 0 mm 1 mps 601 mmHg 62%
    09:00 -3°C° 0 mm 1 mps 602 mmHg 59%
    10:00 -1°C° 0 mm 1 mps 602 mmHg 58%
    11:00 0°C° 0 mm 1 mps 602 mmHg 57%
    12:00 0°C° 0 mm 0 mps 602 mmHg 56%
    13:00 0°C° 0 mm 0 mps 602 mmHg 56%
    14:00 0°C° 0 mm 0 mps 602 mmHg 55%
    15:00 +1°C° 0 mm 0 mps 602 mmHg 54%
    16:00 0°C° 0 mm 1 mps 602 mmHg 56%
    17:00 -1°C° 0 mm 1 mps 602 mmHg 59%
    18:00 -3°C° 0 mm 1 mps 602 mmHg 61%
    19:00 -3°C° 0 mm 1 mps 602 mmHg 60%
    20:00 -3°C° 0 mm 1 mps 602 mmHg 60%
    21:00 -3°C° 0 mm 1 mps 602 mmHg 59%
    22:00 -4°C° 0 mm 1 mps 602 mmHg 58%
    23:00 -4°C° 0 mm 1 mps 602 mmHg 57%

    21 January, Sunday

    Time Temperature Precipitation Wind Pressure Humidity
    00:00 -4°C° 0 mm 1 mps 602 mmHg 56%
    01:00 -4°C° 0 mm 1 mps 602 mmHg 54%
    02:00 -4°C° 0 mm 1 mps 602 mmHg 53%
    03:00 -4°C° 0 mm 1 mps 602 mmHg 52%
    04:00 -4°C° 0 mm 1 mps 602 mmHg 51%
    05:00 -6°C° 0 mm 1 mps 602 mmHg 49%
    06:00 -6°C° 0 mm 1 mps 602 mmHg 48%
    07:00 -4°C° 0 mm 1 mps 603 mmHg 45%
    08:00 -2°C° 0 mm 1 mps 603 mmHg 42%
    09:00 -1°C° 0 mm 1 mps 604 mmHg 40%
    10:00 0°C° 0 mm 1 mps 604 mmHg 41%
    11:00 +2°C° 0 mm 1 mps 604 mmHg 42%
    12:00 +3°C° 0 mm 1 mps 604 mmHg 43%
    13:00 +3°C° 0 mm 1 mps 604 mmHg 42%
    14:00 +4°C° 0 mm 1 mps 603 mmHg 41%
    15:00 +3°C° 0 mm 2 mps 603 mmHg 40%
    16:00 +1°C° 0 mm 2 mps 603 mmHg 41%
    17:00 -1°C° 0 mm 2 mps 602 mmHg 42%
    18:00 -3°C° 0 mm 2 mps 602 mmHg 43%
    19:00 -3°C° 0 mm 2 mps 601 mmHg 41%
    20:00 -3°C° 0 mm 2 mps 601 mmHg 40%
    21:00 -3°C° 0 mm 2 mps 601 mmHg 39%
    22:00 -3°C° 0 mm 2 mps 601 mmHg 38%
    23:00 -1°C° 0 mm 1 mps 601 mmHg 37%
    Show more